Printer-friendly version

IAU Minor Planet Center

Minor Planet Center

195P/Hill

Orbital Elements

The following orbital elements are taken from MPC 61438:
195P/Hill
Epoch 2009 Jan. 9.0 TT = JDT 2454840.5
T 2009 Jan. 21.0918 TT                                  MPC
q   4.438583             (2000.0)            P               Q
n   0.0597725      Peri.  249.6184      -0.5173257      -0.6723682
a   6.478413       Node   243.2496      +0.8181393      -0.5700436
e   0.314866       Incl.   36.3618      -0.2510423      -0.4721983
P  16.5
From 100 observations 1993-2007, mean residual 0".6.
Elements are also available for the current standard epoch:
195P/Hill
Epoch 2009 June 18.0 TT = JDT 2455000.5
T 2009 Jan. 20.9105 TT                                  MPC
q   4.438519             (2000.0)            P               Q
n   0.0597860      Peri.  249.6035      -0.5170644      -0.6726094
a   6.477436       Node   243.2413      +0.8183554      -0.5697414
e   0.314772       Incl.   36.3608      -0.2508760      -0.4722197
P  16.5
An explanation of the orbital elements is available.

These orbital elements are also available in forms suitable for loading into a number of popular planetarium-type software programs.


Ephemeris

The following ephemeris is at intervals of five days. A daily ephemeris covering the same time interval is also available.

Personalized ephemerides for this (and other) objects may be generated using the Minor Planet & Comet Ephemeris Service.

Recent magnitude estimates for this comet (as reported to the ICQ) may be available.

Date    TT    R. A. (2000) Decl.     Delta      r     Elong.  Phase   m1    m2

WARNING!

This comet gets close to the sun during the period covered in the ephemeris below. Observers are warned to be wary of observing comets near the sun. NEVER point any kind of optical instrument at the sun--instant blindness will be the probable result.

2009 06 08 08 30.84 -15 24.9 4.846 4.483 63.3 11.7 18.4 2009 06 13 08 35.58 -15 23.8 4.899 4.486 60.5 11.4 18.5 2009 06 18 08 40.45 -15 24.9 4.950 4.490 57.7 11.0 18.5 2009 06 23 08 45.44 -15 28.3 5.000 4.493 54.9 10.7 18.5 2009 06 28 08 50.54 -15 34.0 5.046 4.497 52.3 10.3 18.5 2009 07 03 08 55.73 -15 42.0 5.091 4.500 49.7 9.9 18.6 2009 07 08 09 00.99 -15 52.1 5.133 4.504 47.2 9.5 18.6 2009 07 13 09 06.33 -16 04.3 5.173 4.508 44.8 9.1 18.6 2009 07 18 09 11.72 -16 18.6 5.209 4.512 42.5 8.7 18.6 2009 07 23 09 17.16 -16 35.0 5.243 4.516 40.3 8.4 18.6 2009 07 28 09 22.64 -16 53.4 5.274 4.521 38.2 8.0 18.7 2009 08 02 09 28.14 -17 13.6 5.302 4.525 36.4 7.6 18.7 2009 08 07 09 33.66 -17 35.7 5.327 4.529 34.7 7.3 18.7 2009 08 12 09 39.20 -17 59.6 5.348 4.534 33.2 7.0 18.7 2009 08 17 09 44.73 -18 25.2 5.366 4.539 31.9 6.8 18.7 2009 08 22 09 50.26 -18 52.5 5.381 4.543 30.9 6.6 18.7 2009 08 27 09 55.78 -19 21.4 5.393 4.548 30.2 6.4 18.7 2009 09 01 10 01.26 -19 51.7 5.401 4.553 29.8 6.3 18.7 2009 09 06 10 06.72 -20 23.5 5.405 4.558 29.8 6.3 18.8 2009 09 11 10 12.14 -20 56.7 5.406 4.563 30.1 6.4 18.8 2009 09 16 10 17.51 -21 31.1 5.404 4.569 30.7 6.5 18.8 2009 09 21 10 22.82 -22 06.8 5.398 4.574 31.7 6.6 18.8 2009 09 26 10 28.06 -22 43.7 5.388 4.579 33.0 6.8 18.8 2009 10 01 10 33.23 -23 21.5 5.375 4.585 34.5 7.1 18.8 2009 10 06 10 38.31 -24 00.4 5.358 4.591 36.3 7.4 18.8 2009 10 11 10 43.29 -24 40.1 5.338 4.596 38.3 7.7 18.8 2009 10 16 10 48.18 -25 20.6 5.315 4.602 40.5 8.1 18.8 2009 10 21 10 52.94 -26 01.9 5.288 4.608 42.8 8.4 18.8 2009 10 26 10 57.57 -26 43.7 5.258 4.614 45.4 8.8 18.7 2009 10 31 11 02.05 -27 26.1 5.225 4.620 48.0 9.2 18.7 2009 11 05 11 06.38 -28 08.8 5.188 4.626 50.8 9.6 18.7 2009 11 10 11 10.55 -28 51.9 5.149 4.633 53.7 9.9 18.7 2009 11 15 11 14.52 -29 35.1 5.107 4.639 56.7 10.3 18.7 2009 11 20 11 18.30 -30 18.4 5.063 4.645 59.8 10.6 18.7 2009 11 25 11 21.85 -31 01.6 5.016 4.652 63.0 10.9 18.7 2009 11 30 11 25.17 -31 44.5 4.967 4.659 66.3 11.2 18.7 2009 12 05 11 28.24 -32 27.1 4.916 4.665 69.6 11.4 18.6 2009 12 10 11 31.04 -33 09.1 4.864 4.672 73.0 11.6 18.6 2009 12 15 11 33.54 -33 50.3 4.810 4.679 76.5 11.8 18.6 2009 12 20 11 35.74 -34 30.6 4.755 4.686 80.1 11.9 18.6 2009 12 25 11 37.62 -35 09.6 4.699 4.693 83.7 12.0 18.6 2009 12 30 11 39.15 -35 47.2 4.643 4.700 87.3 12.1 18.6 2010 01 04 11 40.32 -36 23.1 4.587 4.708 91.0 12.1 18.5 2010 01 09 11 41.13 -36 57.1 4.531 4.715 94.7 12.0 18.5 2010 01 14 11 41.56 -37 28.7 4.475 4.722 98.5 11.9 18.5 2010 01 19 11 41.60 -37 57.8 4.421 4.730 102.3 11.7 18.5 2010 01 24 11 41.25 -38 23.9 4.369 4.737 106.1 11.5 18.5 2010 01 29 11 40.52 -38 46.8 4.319 4.745 109.9 11.3 18.4 2010 02 03 11 39.43 -39 06.1 4.271 4.753 113.6 11.0 18.4 2010 02 08 11 37.99 -39 21.6 4.226 4.760 117.4 10.6 18.4 2010 02 13 11 36.23 -39 32.8 4.184 4.768 121.0 10.2 18.4 2010 02 18 11 34.18 -39 39.6 4.146 4.776 124.5 9.8 18.4 2010 02 23 11 31.89 -39 41.7 4.113 4.784 127.9 9.4 18.4 2010 02 28 11 29.40 -39 39.1 4.084 4.792 131.0 9.0 18.4 2010 03 05 11 26.79 -39 31.6 4.059 4.800 133.9 8.6 18.4 2010 03 10 11 24.10 -39 19.3 4.041 4.809 136.4 8.2 18.4 2010 03 15 11 21.39 -39 02.3 4.027 4.817 138.5 7.9 18.4 2010 03 20 11 18.73 -38 40.7 4.020 4.825 140.0 7.6 18.4 2010 03 25 11 16.19 -38 15.0 4.018 4.834 141.0 7.5 18.4 2010 03 30 11 13.82 -37 45.5 4.022 4.842 141.3 7.4 18.4 2010 04 04 11 11.66 -37 12.6 4.033 4.851 141.0 7.5 18.4 2010 04 09 11 09.77 -36 36.9 4.049 4.859 140.0 7.6 18.4 2010 04 14 11 08.18 -35 58.9 4.071 4.868 138.5 7.9 18.4 2010 04 19 11 06.91 -35 19.2 4.100 4.877 136.4 8.2 18.4 2010 04 24 11 06.00 -34 38.4 4.133 4.885 134.0 8.5 18.5 2010 04 29 11 05.44 -33 57.0 4.173 4.894 131.1 8.9 18.5 2010 05 04 11 05.25 -33 15.6 4.217 4.903 128.1 9.3 18.5 2010 05 09 11 05.43 -32 34.6 4.266 4.912 124.8 9.7 18.6 2010 05 14 11 05.97 -31 54.5 4.319 4.921 121.3 10.1 18.6 2010 05 19 11 06.87 -31 15.7 4.377 4.930 117.8 10.5 18.6 2010 05 24 11 08.10 -30 38.6 4.438 4.939 114.1 10.8 18.7 2010 05 29 11 09.67 -30 03.3 4.503 4.948 110.4 11.1 18.7 2010 06 03 11 11.54 -29 30.2 4.570 4.958 106.7 11.3 18.8 2010 06 08 11 13.71 -28 59.3 4.640 4.967 102.9 11.5 18.8 2010 06 13 11 16.16 -28 30.9 4.712 4.976 99.2 11.6 18.8 2010 06 18 11 18.87 -28 05.0 4.785 4.986 95.5 11.7 18.9 2010 06 23 11 21.82 -27 41.7 4.860 4.995 91.7 11.7 18.9 2010 06 28 11 25.00 -27 21.1 4.936 5.005 88.0 11.7 19.0 2010 07 03 11 28.38 -27 02.9 5.011 5.014 84.3 11.6 19.0 2010 07 08 11 31.96 -26 47.4 5.087 5.024 80.7 11.5 19.0 2010 07 13 11 35.71 -26 34.4 5.163 5.034 77.0 11.4 19.1

Back to Observable Comets


Valid HTML 4.01!